This is the latest recevied weather packets stored in our database for station/object KB9GXK. If no packets are shown the sender has not sent any weather packets the latest 10 day(s).
| Time | Temp. | Humidity | Pressure | Rain* | Wind** | Luminosity | Snow |
|---|---|---|---|---|---|---|---|
| 1778009791 | 16.11° C | 30% | 1009.6 hPa | 0 mm | - | 402 W/m² | - |
| 1778009488 | 16.11° C | 31% | 1009.8 hPa | 0 mm | - | 446 W/m² | - |
| 1778009187 | 16.11° C | 32% | 1009.9 hPa | 0 mm | - | 620 W/m² | - |
| 1778008883 | 15.56° C | 33% | 1009.7 hPa | 0 mm | - | 550 W/m² | - |
| 1778008582 | 15° C | 33% | 1009.5 hPa | 0 mm | - | 587 W/m² | - |
| 1778008279 | 15° C | 32% | 1009.5 hPa | 0 mm | - | 476 W/m² | - |
| 1778007975 | 15° C | 32% | 1009.6 hPa | 0 mm | - | 498 W/m² | - |
| 1778007670 | 15° C | 31% | 1009.8 hPa | 0 mm | - | 377 W/m² | - |
| 1778007367 | 16.11° C | 32% | 1009.5 hPa | 0 mm | - | 353 W/m² | - |
| 1778007064 | 16.11° C | 33% | 1009.5 hPa | 0 mm | - | 443 W/m² | - |
| 1778006760 | 15.56° C | 32% | 1009.4 hPa | 0 mm | - | 421 W/m² | - |
| 1778006457 | 15.56° C | 31% | 1009.6 hPa | 0 mm | - | 633 W/m² | - |
| 1778006154 | 16.11° C | 31% | 1009.3 hPa | 0 mm | - | 671 W/m² | - |
| 1778005852 | 16.11° C | 30% | 1009.4 hPa | 0 mm | - | 544 W/m² | - |
| 1778005547 | 16.11° C | 33% | 1009.6 hPa | 0 mm | - | 753 W/m² | - |
| 1778005244 | 15° C | 31% | 1009.2 hPa | 0 mm | - | 621 W/m² | - |
| 1778004941 | 16.11° C | 30% | 1009.3 hPa | 0 mm | - | 548 W/m² | - |
| 1778004638 | 14.44° C | 33% | 1009.2 hPa | 0 mm | - | 580 W/m² | - |
| 1778004334 | 15° C | 32% | 1009.1 hPa | 0 mm | - | 614 W/m² | - |
| 1778004032 | 14.44° C | 34% | 1009.1 hPa | 0 mm | - | 453 W/m² | - |
| 1778003732 | 14.44° C | 33% | 1009.1 hPa | 0 mm | - | 452 W/m² | - |
| 1778003429 | 14.44° C | 34% | 1009 hPa | 0 mm | - | 497 W/m² | - |
| 1778003126 | 14.44° C | 32% | 1009.2 hPa | 0 mm | - | 486 W/m² | - |
| 1778002822 | 14.44° C | 32% | 1009.4 hPa | 0 mm | - | 504 W/m² | - |
| 1778002519 | 14.44° C | 35% | 1009 hPa | 0 mm | - | 382 W/m² | - |
* Rain latest hour (hover to see other rain measurements)
** Current wind speed in m/s (hover to see current wind gust speed)